Theta_e
320 319 319 318 318 319 317 318 319 320 319 321 322 321 319 317 314 314 313 315 319 324 324 323 321 320 319 318 316 316 316 315 314 314 313 311 311 309 309 308 308 308 308
321 320 318 318 318 319 319 318 319 318 319 321 321 322 323 318 316 313 313 313 318 322 324 324 323 322 321 320 319 319 317 316 315 314 313 311 311 310 310 308 307 307 307
321 321 319 317 318 318 318 317 318 318 318 320 320 321 322 320 316 313 312 312 313 318 322 323 323 323 322 322 321 320 319 318 317 315 314 314 313 311 310 309 308 308 307
321 318 318 317 318 317 317 317 318 318 317 317 318 320 320 319 316 314 312 311 311 313 316 322 323 323 323 323 322 321 321 320 318 317 315 315 314 313 312 311 310 309 308
322 319 317 317 318 317 316 317 318 317 316 316 319 319 319 316 315 315 312 311 310 311 310 315 319 320 322 322 322 322 322 322 320 318 317 316 315 314 313 312 311 310 309
322 321 319 318 317 316 315 317 317 317 317 315 317 317 318 316 314 312 312 312 310 310 310 310 310 311 317 319 321 322 322 322 322 321 319 317 316 315 314 313 312 311 310
322 321 321 318 317 316 317 318 317 316 315 316 317 315 316 315 313 314 314 312 310 310 309 309 307 307 308 317 318 320 322 322 321 322 321 319 318 316 315 315 314 313 311
323 322 321 320 319 317 317 318 318 315 317 316 312 312 309 308 309 313 311 313 312 310 309 308 307 306 305 305 310 317 319 320 321 321 322 322 320 318 317 316 316 315 313
324 323 323 322 321 320 318 318 318 317 315 314 315 310 304 302 304 307 307 309 310 308 309 308 307 306 306 305 307 309 314 315 316 319 320 320 321 322 319 318 317 316 315
324 323 323 323 322 321 320 319 319 318 316 314 311 316 312 308 305 303 307 307 307 308 308 308 306 305 306 305 304 303 306 311 313 314 315 316 318 318 320 320 318 316 316
325 323 323 322 322 322 321 321 319 318 318 317 315 309 313 311 311 311 306 306 307 306 309 308 307 307 305 304 301 301 306 308 309 309 310 311 312 314 317 318 318 318 317
325 325 324 323 322 322 322 321 321 320 319 319 318 315 312 309 311 310 308 308 308 309 308 307 305 306 306 302 301 300 303 305 307 307 307 307 308 310 312 315 315 316 316
324 325 325 323 323 322 322 322 321 320 319 319 318 317 317 315 311 312 310 309 309 310 309 305 306 307 303 299 297 296 299 301 303 304 304 305 307 308 309 310 311 313 312
326 326 326 325 324 324 323 322 322 321 321 319 319 318 318 318 316 316 314 311 308 307 305 308 304 302 300 297 297 296 294 298 299 301 302 304 305 306 307 308 309 308 308
326 326 326 325 325 324 323 323 322 321 321 320 319 318 318 319 319 319 318 316 313 307 306 305 305 302 297 298 296 295 294 295 298 300 300 301 303 305 306 306 306 307 307
325 325 325 325 324 324 323 322 322 322 321 321 320 319 319 320 320 319 319 317 315 313 309 308 304 300 298 297 296 295 295 294 295 296 297 299 300 302 303 304 304 305 306
326 324 324 324 324 323 323 322 322 322 321 320 321 320 319 320 319 318 317 316 315 314 311 305 300 299 297 296 294 293 292 292 291 293 295 297 298 299 300 301 301 302 301
324 324 325 324 323 323 323 321 321 321 321 319 320 318 318 318 317 318 316 314 314 312 311 307 297 295 296 295 294 291 291 291 288 292 294 295 296 296 297 298 298 298 298
323 323 324 324 324 323 322 322 321 321 320 320 319 317 318 316 314 314 312 312 309 301 303 298 295 293 292 291 289 288 288 286 289 291 293 294 294 295 295 296 296 295 295
320 321 322 324 323 323 322 322 321 321 319 318 318 317 316 315 314 311 308 307 302 299 295 291 288 289 288 287 287 286 285 284 285 287 290 290 291 292 293 294 294 293 292
318 319 320 321 322 321 320 319 318 318 317 316 314 314 314 308 301 305 305 302 299 294 289 289 287 286 286 285 286 285 285 284 282 279 280 282 284 283 284 288 288 290 292
310 313 312 313 314 315 307 305 312 315 313 313 311 305 302 292 296 297 298 298 300 296 291 289 287 287 287 287 285 285 285 283 278 280 279 279 281 279 281 283 289 291 291
302 305 307 307 308 312 301 302 300 314 311 309 305 300 295 294 293 295 295 295 295 296 295 293 288 288 287 287 286 284 283 280 284 284 278 275 278 278 280 283 290 289 289
298 301 301 303 304 301 298 298 295 306 303 302 300 299 297 292 292 292 291 289 289 290 292 292 292 289 289 287 287 285 283 281 282 280 278 275 276 276 278 278 289 288 288
296 297 294 296 295 297 295 296 296 294 294 294 296 296 296 292 291 292 289 287 286 286 291 291 291 291 290 289 286 284 279 275 272 277 280 277 276 275 275 276 280 287 287
292 294 293 292 292 294 293 294 295 292 290 290 289 290 288 292 291 292 289 287 286 285 285 285 287 289 289 288 288 284 280 275 272 274 282 275 275 274 273 275 276 276 277
Wind_Speed
5 5 4 4 4 4 5 5 5 4 5 3 4 4 5 5 5 3 2 5 6 9 9 8 8 8 9 8 8 9 9 9 8 7 5 3 3 1 2 1 1 2 3
6 6 5 6 5 5 5 5 5 5 5 5 4 5 6 5 6 5 3 3 7 7 10 9 9 10 10 11 11 11 11 10 8 7 6 6 6 6 6 4 2 1 1
7 8 6 6 6 5 6 5 4 4 4 5 6 4 4 6 6 6 5 4 5 9 10 12 11 12 12 13 14 14 13 12 10 9 10 10 10 9 8 7 6 5 5
7 6 5 5 5 5 4 4 4 4 4 4 3 4 4 5 6 6 5 5 5 4 8 13 14 15 14 15 16 16 15 14 13 12 12 13 12 12 11 11 11 10 9
9 6 5 5 6 5 5 5 4 4 4 4 4 4 4 5 6 4 7 7 6 6 4 10 14 14 15 17 17 17 17 17 16 15 15 15 15 15 15 15 13 13 11
11 9 6 7 6 5 5 4 5 5 4 5 4 4 4 4 4 5 6 5 6 7 6 7 5 6 14 18 19 19 19 19 18 18 18 17 17 17 17 16 16 14 14
12 12 9 7 7 8 9 8 5 7 5 4 3 2 4 5 6 7 7 6 7 8 7 7 5 4 5 18 20 21 21 20 19 19 19 19 20 19 18 19 18 17 16
13 12 12 10 9 7 7 10 8 4 5 5 4 2 3 4 4 7 5 7 9 5 6 7 7 7 6 6 11 20 21 20 19 19 19 17 21 21 20 20 20 19 18
14 14 14 11 10 9 9 10 10 11 8 5 7 5 2 5 1 1 5 5 7 4 5 6 8 8 9 8 11 12 19 19 19 20 19 17 17 21 23 21 21 20 19
14 16 15 14 12 10 12 11 9 10 7 9 2 7 6 5 4 4 2 4 5 6 7 5 6 8 10 9 9 10 12 15 16 18 18 17 19 19 20 23 22 20 19
15 15 15 14 14 12 14 13 12 13 10 9 8 3 7 4 5 7 10 4 3 4 6 7 8 9 10 9 7 9 14 15 14 13 16 19 20 20 22 22 18 21 20
11 15 15 15 15 14 14 13 14 14 13 12 9 9 7 5 10 8 8 10 8 5 7 6 6 8 8 6 7 9 11 13 14 16 17 19 20 20 22 22 21 20 18
10 15 16 15 14 16 16 14 13 14 13 13 14 11 10 10 4 7 8 7 8 5 5 5 6 7 5 4 5 8 9 10 13 15 17 19 20 19 20 20 21 20 18
12 13 15 17 18 17 16 14 12 12 13 13 16 13 10 10 9 10 10 7 6 6 4 7 2 5 4 4 5 9 5 10 10 12 15 16 18 18 19 18 17 18 18
12 13 14 17 18 16 16 16 12 15 14 14 14 13 12 10 9 11 10 10 10 7 5 4 5 3 3 4 4 3 4 7 9 9 12 13 14 17 16 16 17 17 17
14 13 13 16 17 17 16 16 14 15 14 13 11 14 14 12 12 10 10 10 9 11 9 5 6 3 3 3 4 4 3 4 5 6 8 11 11 13 14 15 15 16 17
15 13 14 15 16 17 17 16 17 16 16 15 15 15 17 16 11 9 8 9 9 9 11 3 2 3 4 4 3 2 1 2 2 5 7 10 10 12 12 13 14 15 16
12 15 16 16 17 18 18 18 19 17 17 17 17 15 17 11 14 13 9 11 10 7 8 10 4 3 3 1 3 2 2 3 3 4 5 7 8 9 11 11 14 15 16
12 12 14 16 17 16 16 16 17 16 16 17 15 15 16 14 13 10 10 9 7 4 5 4 4 2 2 2 2 1 1 3 2 5 6 6 9 9 9 10 11 12 13
11 12 14 15 15 16 16 15 16 16 14 14 15 15 16 15 15 12 10 10 7 6 4 3 2 3 3 2 2 2 1 2 1 1 2 3 6 6 8 8 8 8 10
12 11 12 12 13 13 11 14 13 14 13 14 14 14 14 12 13 11 8 8 8 5 3 3 3 2 3 3 4 3 2 1 1 1 1 1 1 2 3 5 5 6 7
10 9 9 9 10 9 12 15 14 12 14 15 13 8 6 7 9 13 12 11 12 11 7 4 3 4 5 3 3 4 4 3 2 2 2 2 2 2 2 2 5 6 9
9 9 10 7 11 11 12 16 17 12 10 10 8 7 6 4 6 7 8 9 9 10 7 8 6 6 5 7 7 4 4 3 3 3 3 0 1 2 2 3 5 9 8
13 12 10 10 9 6 9 11 12 10 8 9 10 11 11 10 9 9 9 7 6 5 6 5 5 5 4 7 6 4 5 4 3 1 2 2 1 3 1 2 7 11 10
12 14 7 9 9 9 12 13 10 6 6 7 7 8 9 9 13 14 10 10 7 4 5 9 11 14 15 14 11 7 3 4 1 2 2 3 2 2 1 1 2 10 11
11 11 11 10 9 11 13 15 14 6 7 5 5 6 10 12 18 19 12 12 11 9 10 7 6 11 12 12 12 3 6 5 4 1 3 3 1 1 3 1 2 2 3
Wind_Direction
187 170 190 187 194 196 202 212 214 222 218 224 220 182 205 177 174 185 194 223 241 252 219 211 214 215 212 213 218 218 218 218 219 219 205 204 156 127 93 93 161 97 72
185 187 187 201 202 196 207 207 206 198 211 216 215 207 224 182 192 198 209 228 237 251 244 228 231 233 233 230 230 230 234 230 230 234 236 221 208 216 211 215 227 243 215
191 196 195 195 202 201 203 209 226 213 217 232 218 220 216 187 198 202 211 215 232 234 240 237 239 243 245 245 240 236 236 235 230 227 230 226 221 219 228 230 229 237 242
193 202 204 208 198 193 192 187 195 201 216 225 210 213 221 194 204 205 208 215 217 223 230 233 241 245 246 249 249 244 240 237 231 231 230 234 230 231 229 229 232 232 239
198 192 204 208 202 195 197 194 203 186 209 229 209 222 230 211 210 207 222 224 219 219 217 232 232 237 244 247 252 252 250 243 238 230 230 231 232 232 232 233 239 243 246
199 202 205 206 195 193 201 190 193 204 201 213 217 217 229 221 220 224 229 230 223 222 217 218 226 231 234 244 253 256 255 253 247 235 230 230 231 234 241 238 242 241 250
201 207 212 208 199 203 206 202 190 198 215 212 148 261 253 236 233 227 228 229 231 228 217 220 210 215 229 240 250 254 257 259 260 254 238 236 232 231 241 242 244 244 246
200 208 213 212 210 210 205 207 203 201 211 189 181 182 264 292 262 234 210 228 238 225 225 220 214 211 216 228 239 247 254 257 260 264 259 247 237 235 235 243 243 246 247
199 205 209 211 209 209 214 211 207 206 217 212 201 169 202 225 312 311 231 227 237 226 233 222 221 218 218 225 236 244 248 254 259 261 267 267 264 248 240 239 246 246 249
205 203 209 206 207 210 216 214 207 208 191 210 219 227 212 157 194 308 288 240 215 226 234 229 218 222 225 231 226 220 225 240 250 256 265 265 268 270 272 245 247 245 247
211 207 206 206 210 211 217 216 214 210 207 214 211 164 227 229 217 242 275 247 282 232 238 226 214 221 224 224 220 224 223 229 238 251 257 257 265 266 270 268 271 252 249
216 215 207 210 212 215 216 216 216 214 214 216 214 210 197 189 214 212 231 249 248 238 226 237 218 224 228 218 217 204 207 226 240 248 253 256 259 262 267 269 267 271 265
217 218 211 211 216 217 218 218 217 220 214 216 214 215 217 222 178 206 224 234 233 227 237 240 226 220 213 193 197 180 196 215 247 259 261 260 256 258 264 266 270 271 275
221 217 213 216 216 216 217 218 220 221 219 221 221 217 218 222 213 216 224 223 248 233 209 232 250 226 211 184 181 185 203 225 243 258 266 264 263 260 263 265 267 268 270
227 222 213 213 218 215 214 214 219 223 218 220 221 219 217 220 215 222 222 222 234 252 234 226 225 220 188 164 172 189 210 206 239 256 274 274 274 270 264 267 269 269 267
223 221 212 211 214 214 212 211 218 224 220 220 219 217 218 223 224 219 222 224 222 238 257 193 209 165 152 153 158 190 209 227 252 274 283 282 282 276 272 273 274 277 279
224 216 212 211 212 211 210 210 217 221 220 221 219 218 221 220 220 217 218 224 223 225 246 225 163 139 179 154 160 132 95 227 250 267 270 282 287 284 281 276 280 284 286
223 221 220 215 213 211 209 208 214 216 219 218 220 216 222 217 220 221 214 217 222 212 234 238 168 166 204 150 128 152 202 221 204 245 257 267 271 275 281 281 278 278 280
231 225 225 224 220 215 213 215 218 219 221 222 218 216 222 218 219 219 212 218 210 186 203 164 172 101 119 122 116 131 174 282 240 223 245 265 266 264 266 271 278 284 288
237 229 225 225 221 215 215 214 215 219 220 220 217 214 217 216 219 211 206 209 195 187 166 145 134 151 140 130 125 150 150 266 291 346 224 230 266 279 284 291 300 307 307
249 242 236 230 223 216 212 209 210 213 215 219 218 217 218 212 207 199 195 200 178 162 147 164 137 136 149 161 182 154 140 216 327 174 50 27 336 337 326 326 311 304 316
263 250 236 227 222 221 214 205 205 213 216 220 220 211 193 185 198 194 191 181 181 177 178 152 162 179 173 162 142 159 144 158 171 307 83 315 52 317 316 347 321 357 34
276 261 250 230 238 238 205 212 208 222 218 218 206 185 186 182 175 163 151 160 164 168 163 174 165 183 164 171 144 151 170 150 165 150 110 223 22 291 251 325 78 72 25
272 263 254 242 238 227 202 202 198 216 201 195 192 191 193 182 182 164 151 145 140 143 157 170 167 159 145 142 150 162 154 111 70 342 115 153 247 255 322 303 120 22 23
274 265 243 236 230 237 206 203 188 197 205 201 192 185 184 178 170 164 155 154 140 126 121 121 126 130 137 144 149 130 144 120 111 204 202 132 262 266 334 278 265 6 0
266 272 257 237 234 236 203 200 191 186 196 186 183 183 183 177 168 172 166 161 159 158 137 122 127 137 139 150 157 150 154 147 128 115 185 141 168 153 334 272 312 321 353